Probability
0 0 0 0 0 0 0 0 0 0 0 0 0 0 1 1 1 1 1 1 3 3 1 0 0 0 0 0 0 0 0 0 0 1 1 1 0 0 0 0 0 0 0 0 0 1 2 3 3
0 0 0 0 0 0 0 0 0 0 0 0 0 0 1 3 2 1 1 2 3 3 2 1 0 0 0 0 0 0 0 0 0 0 1 1 1 0 0 0 0 0 0 0 0 1 2 3 2
0 0 0 0 0 0 0 0 0 0 0 0 0 0 2 3 2 1 2 3 3 3 2 1 0 0 0 0 0 0 0 0 0 0 0 1 1 1 0 0 0 0 0 1 1 2 2 2 2
0 0 0 0 0 0 0 0 0 0 0 0 0 0 1 2 2 2 3 3 3 4 3 2 1 1 0 0 0 0 0 0 0 0 0 0 1 2 1 0 0 0 1 1 2 2 2 2 3
0 0 0 0 0 0 0 0 0 0 0 0 0 1 1 2 3 4 4 4 4 5 4 3 2 1 0 0 0 0 0 0 0 0 0 0 1 2 2 1 0 0 1 2 3 3 2 3 3
0 0 0 0 0 0 0 0 0 0 0 0 1 2 1 1 3 5 6 6 6 5 4 3 2 0 0 0 0 0 0 0 0 0 0 0 0 1 2 1 0 0 1 2 3 3 3 2 2
0 0 0 0 0 0 0 0 0 0 0 0 1 2 1 1 3 5 5 6 5 4 3 3 2 1 0 0 0 0 0 0 0 0 0 0 0 0 1 1 0 0 0 1 1 3 3 1 1
0 0 0 0 0 0 0 0 0 0 0 0 1 1 0 1 3 5 5 4 4 3 3 3 3 2 1 0 0 0 0 0 0 0 0 0 0 0 0 0 0 0 0 0 1 2 2 1 0
0 0 0 0 0 0 0 0 0 0 0 1 1 1 1 1 3 4 4 4 4 3 3 3 3 3 1 0 0 0 0 0 0 0 0 0 0 0 0 0 0 0 0 0 0 1 1 0 0
0 0 0 0 0 0 0 0 0 0 0 1 2 2 2 3 4 4 4 4 3 3 3 3 3 3 1 0 0 0 0 0 0 0 0 0 0 0 0 0 0 1 0 0 0 0 0 0 0
0 0 0 0 0 0 0 0 0 0 0 0 1 2 3 4 5 4 3 3 4 3 3 3 2 1 0 0 0 0 0 0 0 0 0 0 0 0 0 0 0 0 0 0 0 0 0 0 0
0 0 0 0 0 0 0 0 0 0 0 0 1 2 2 4 5 4 3 4 4 4 3 3 1 0 0 0 0 0 0 0 0 0 0 0 0 0 0 0 0 0 0 0 0 0 0 0 0
0 0 0 0 0 0 0 0 0 0 0 0 1 1 1 2 3 3 3 4 4 3 2 2 1 0 0 0 0 0 0 0 0 0 0 0 0 0 0 0 0 0 0 0 0 0 0 0 0
0 0 0 0 0 0 0 0 0 0 0 0 0 1 1 1 2 3 3 3 3 2 1 1 0 0 0 0 0 0 0 0 0 0 0 0 0 0 0 0 0 0 0 0 0 0 0 0 0
0 0 0 0 0 0 0 0 0 0 0 0 0 0 0 0 1 1 2 2 2 1 1 0 0 0 0 0 0 0 0 0 0 0 0 0 0 0 0 0 0 0 0 0 0 0 0 0 0
0 0 0 0 0 0 0 0 0 0 0 0 0 0 0 0 0 0 1 1 1 2 2 1 0 0 0 0 0 0 0 0 0 0 0 0 0 0 0 0 0 0 0 0 0 0 0 0 0
0 0 0 0 0 0 0 0 0 0 0 0 0 0 0 0 0 0 0 0 0 1 2 2 1 1 0 0 0 0 0 0 0 0 0 0 0 0 0 0 0 0 0 0 0 0 0 0 0
0 0 0 0 0 0 0 0 0 0 0 0 0 0 0 0 0 0 0 0 0 0 1 2 2 2 1 1 0 0 0 0 0 0 0 0 0 0 0 0 0 0 0 0 0 0 0 0 0
0 0 0 0 0 0 0 0 0 0 0 0 0 0 0 0 0 0 0 0 0 0 0 1 1 2 3 2 1 0 0 0 0 0 0 0 0 0 0 0 0 0 0 0 0 0 0 0 0
0 0 0 0 0 0 0 0 0 0 0 0 0 0 0 0 0 0 0 0 0 0 0 0 1 2 3 3 2 0 0 0 0 0 0 0 0 0 0 0 0 0 0 0 0 0 0 0 0
0 0 0 0 0 0 0 0 0 0 0 0 0 0 0 0 0 0 0 0 0 0 0 0 0 2 3 3 1 0 0 0 0 0 0 0 0 0 0 0 0 0 0 0 0 0 0 0 0
0 0 0 0 0 0 0 0 0 0 0 0 0 0 0 0 0 0 0 0 0 0 0 0 0 2 3 2 1 0 0 0 0 0 0 0 0 0 0 0 0 0 0 0 0 0 0 0 0
0 0 0 0 0 0 0 0 0 0 0 0 0 0 0 0 0 0 0 0 0 0 0 0 0 1 2 2 1 0 0 0 0 0 0 0 0 0 0 0 0 0 0 0 0 0 0 0 0
0 0 0 0 0 0 0 0 0 0 0 0 0 0 0 0 0 0 0 0 0 0 0 0 0 0 1 1 1 0 0 0 0 0 0 0 0 0 0 0 0 0 0 0 0 0 0 0 0
0 0 0 0 0 0 0 0 0 0 0 0 0 0 0 0 0 0 0 0 0 0 0 0 0 0 0 0 0 0 0 0 0 0 0 0 0 0 0 0 0 0 0 0 0 0 0 0 0
0 0 0 0 0 0 0 0 0 0 0 0 0 0 0 0 0 0 0 0 0 0 0 0 0 0 0 0 0 0 0 0 0 0 0 0 0 0 0 0 0 0 0 0 0 0 0 0 0
0 0 0 0 0 0 0 0 0 0 0 0 0 0 0 0 0 0 0 0 0 0 0 0 0 0 0 0 0 0 0 0 0 0 0 0 0 0 0 0 0 0 0 0 0 0 0 0 0
0 0 0 0 0 0 0 0 0 0 0 0 0 0 0 0 0 0 0 0 0 0 0 0 0 0 0 0 0 0 0 0 0 0 0 0 0 0 0 0 0 0 0 0 0 0 0 0 0
0 0 0 0 0 0 0 0 0 0 0 0 0 0 0 0 0 0 0 0 0 0 0 0 0 0 0 0 0 0 0 0 0 0 0 0 0 0 0 0 0 0 0 0 0 0 0 0 0
0 0 0 0 0 0 0 0 0 0 0 0 0 0 0 0 0 0 0 0 0 0 0 0 0 0 0 0 0 0 0 0 0 0 0 0 0 0 0 0 0 0 0 0 0 0 0 0 0
Wind_Speed
11 6 2 4 6 4 1 2 1 0 1 1 3 6 7 4 3 4 2 4 6 4 3 4 5 8 8 9 9 9 9 9 9 9 10 10 10 11 11 11 11 11 11 11 11 12 12 11 11
5 4 4 5 5 2 3 2 2 2 2 2 4 5 6 4 3 5 3 4 6 5 4 3 6 7 8 9 9 8 9 9 9 9 9 9 10 10 10 10 10 10 11 11 11 11 11 10 10
4 2 4 4 3 5 4 3 3 2 1 2 4 5 4 3 3 3 3 6 6 5 4 4 7 8 8 8 8 8 8 9 9 8 9 9 9 9 10 10 10 10 10 10 10 10 10 10 10
3 4 5 4 3 3 4 3 3 1 2 3 4 5 3 2 2 3 6 7 7 5 4 5 7 8 9 8 9 8 8 8 8 8 8 9 9 9 9 9 9 10 10 10 10 9 9 9 10
4 4 3 1 2 2 1 2 2 2 1 2 4 5 2 3 3 6 7 7 7 5 4 4 7 8 8 8 9 8 8 8 8 8 8 8 8 9 9 9 9 9 10 10 10 9 9 9 10
4 4 3 2 3 2 1 1 2 2 1 2 4 5 2 1 4 5 6 6 6 5 4 4 7 8 8 8 8 8 8 8 8 8 8 8 8 9 9 9 8 9 9 9 9 9 9 9 10
4 4 3 3 2 2 2 0 2 3 2 1 2 5 2 1 1 3 5 6 5 5 4 3 3 5 7 8 8 8 8 8 9 9 9 8 8 9 8 8 8 8 8 8 9 9 9 9 10
4 4 2 2 3 3 0 2 1 3 2 1 2 5 4 3 3 4 5 5 5 4 4 3 3 4 4 4 7 8 8 8 8 9 9 9 8 7 8 7 7 7 8 8 8 8 8 9 9
3 4 2 3 3 2 1 2 2 2 4 3 3 1 2 6 6 6 4 3 3 3 3 3 3 3 3 3 5 6 7 7 7 6 8 7 4 3 4 6 7 7 7 7 7 7 8 8 8
4 3 3 1 2 3 2 2 1 2 3 2 3 3 5 7 7 7 5 4 3 3 2 2 3 3 3 3 3 2 3 3 3 3 3 3 3 3 4 6 7 8 8 7 7 7 7 5 3
3 4 2 1 2 3 3 2 1 4 1 3 4 5 6 6 5 5 5 4 4 4 3 3 3 3 3 2 2 1 1 1 2 2 3 3 3 2 3 2 3 4 5 4 4 4 3 3 3
3 2 2 1 2 3 2 2 2 1 3 2 4 7 8 7 6 6 5 4 4 4 3 2 3 3 2 2 2 2 1 1 1 1 2 2 2 2 2 2 2 2 2 2 2 2 3 3 3
2 1 2 3 4 3 3 2 1 2 2 0 3 6 6 5 4 3 3 4 4 4 3 3 3 3 3 2 2 2 1 1 1 1 1 2 2 1 1 1 1 2 2 2 2 2 2 3 3
3 3 2 2 2 2 3 1 0 4 2 2 4 5 4 4 4 3 2 3 4 4 3 3 3 3 3 2 2 2 2 1 1 1 1 2 2 2 1 1 1 1 1 1 1 1 1 1 1
3 3 2 1 0 1 2 3 4 4 2 3 3 3 3 3 3 3 3 3 4 3 3 3 3 3 3 3 2 2 2 2 1 1 1 1 2 2 2 1 1 0 1 1 1 2 2 1 2
2 3 1 2 0 0 2 4 3 2 3 3 3 2 3 3 3 3 3 3 3 3 3 3 3 2 2 2 2 2 2 2 2 1 1 1 2 2 2 1 1 0 1 1 1 1 2 2 2
3 1 1 2 1 1 2 5 3 0 3 3 3 3 3 3 3 3 3 3 3 3 3 3 3 3 3 2 2 2 2 2 1 1 1 1 2 2 2 2 1 1 1 1 1 1 1 1 1
3 2 1 2 1 2 1 5 5 2 2 4 4 4 4 5 5 3 3 3 3 3 3 3 3 2 2 2 1 1 1 1 1 1 1 2 2 2 2 1 1 2 1 1 1 1 1 1 1
3 3 2 2 0 0 2 6 8 4 2 4 5 4 5 6 4 2 2 2 2 2 2 2 2 2 2 2 2 1 2 1 1 1 1 2 1 2 2 1 2 2 2 1 2 1 1 1 1
2 2 1 1 1 0 2 6 6 4 3 5 6 5 6 4 2 2 2 2 3 3 3 3 3 3 3 2 2 2 2 2 1 1 2 2 2 2 2 2 1 2 2 1 1 2 1 0 0
1 2 2 1 2 1 3 6 4 3 2 2 3 4 4 5 5 4 3 3 3 3 4 3 3 3 3 2 1 1 1 1 0 1 1 2 2 2 2 2 2 2 2 2 2 2 2 1 1
2 2 2 2 1 2 1 4 6 4 3 3 4 4 5 4 4 4 4 4 4 4 3 3 3 3 2 3 3 3 3 2 2 2 2 1 2 2 2 2 2 2 1 1 2 1 1 2 1
3 1 2 2 1 1 1 1 8 3 4 6 6 5 5 4 4 4 5 5 4 4 3 3 2 2 2 3 4 3 2 2 1 0 1 1 1 1 2 2 2 2 1 2 1 1 1 1 2
2 3 3 4 3 2 3 3 7 4 6 5 4 5 4 4 3 4 3 3 2 2 2 2 2 2 2 3 3 3 3 2 1 1 1 1 1 1 1 2 2 2 1 2 2 2 2 2 2
2 4 3 5 3 5 1 3 10 7 6 5 5 5 5 3 3 3 3 3 2 2 3 3 3 3 2 3 3 3 4 3 3 2 2 1 1 2 2 2 2 2 2 2 2 2 2 2 2
3 4 6 5 4 4 1 6 8 5 4 3 3 3 3 3 3 3 4 4 3 3 3 3 3 3 3 3 3 3 3 2 2 2 2 2 2 2 2 2 2 2 2 2 2 2 2 2 3
3 2 2 4 1 2 5 6 8 2 2 2 1 1 2 3 4 4 3 3 3 3 4 4 4 3 3 3 3 2 3 3 3 2 2 2 2 1 1 2 2 2 2 2 2 2 3 2 3
1 3 4 4 4 3 5 5 5 5 5 4 3 3 3 3 3 3 3 3 3 3 3 3 3 4 3 3 3 3 3 3 2 1 2 2 2 1 1 1 2 3 3 2 3 3 3 3 3
2 2 3 3 4 5 4 7 6 7 6 5 5 5 4 4 4 4 3 3 2 2 2 2 3 2 2 2 2 2 2 2 2 2 2 2 2 2 2 2 2 2 3 3 3 4 3 3 4
2 4 5 4 4 3 3 8 4 4 4 4 4 3 3 4 4 3 3 2 2 2 2 2 3 3 3 2 2 2 2 1 2 2 3 2 2 2 2 2 2 2 2 2 3 4 3 4 4
Wind_Direction
333 330 21 55 59 60 197 245 188 29 41 18 63 87 97 92 116 139 129 125 118 125 128 122 104 97 93 90 88 84 83 85 85 82 81 82 82 80 77 74 72 71 69 69 68 67 65 63 61
329 341 49 62 97 140 240 237 190 245 180 131 67 74 78 78 71 106 127 129 119 115 111 115 105 101 99 94 90 86 83 82 85 86 83 81 82 80 78 75 73 72 71 69 67 66 65 63 60
325 30 77 82 126 180 200 211 187 234 52 93 75 51 77 103 103 132 151 132 114 108 101 107 103 103 101 96 92 87 84 82 81 85 86 84 83 82 79 76 74 72 70 69 70 66 64 61 58
39 44 57 86 185 217 197 202 168 129 30 53 102 79 61 38 141 146 133 122 113 109 102 108 103 103 101 97 93 88 84 83 81 82 86 86 84 85 83 78 74 72 71 71 71 68 64 60 58
59 78 78 91 217 252 231 193 163 124 112 43 100 111 93 4 81 123 125 120 116 110 104 112 105 103 102 98 95 90 85 81 82 80 81 85 84 85 83 79 74 73 73 71 69 66 62 60 57
62 76 111 192 218 249 267 204 120 97 110 66 92 119 125 83 94 121 120 120 122 121 109 106 103 104 99 95 91 86 84 80 78 78 76 79 83 84 82 79 75 73 72 71 69 67 63 60 58
110 111 160 177 181 226 249 82 123 131 112 81 128 124 139 167 110 115 117 121 120 119 113 103 99 100 99 95 87 83 80 78 78 76 71 68 73 77 75 74 75 74 72 71 68 67 65 59 55
125 115 143 171 179 211 191 67 65 117 137 30 89 139 181 192 147 115 109 117 116 111 113 112 100 92 88 87 88 83 78 77 78 76 70 65 64 68 69 66 69 71 70 69 67 64 59 54 52
90 89 171 194 185 187 118 82 22 41 96 55 46 101 151 135 129 117 106 106 115 113 111 112 106 99 94 89 87 81 78 74 76 74 72 65 53 56 61 60 62 63 63 64 63 63 57 50 46
81 139 198 217 171 151 113 100 128 84 80 72 55 57 102 122 132 136 140 152 147 143 132 117 114 114 108 100 86 74 75 73 70 70 72 63 54 52 59 58 59 58 55 56 57 56 51 48 36
93 153 160 69 90 120 109 82 75 128 175 196 178 159 149 140 143 156 163 171 167 161 145 137 135 127 123 114 108 89 81 77 71 68 71 73 62 56 53 50 46 46 47 42 37 43 38 37 35
97 67 102 98 65 84 109 118 75 160 220 225 185 161 157 156 166 177 182 188 161 153 158 151 140 133 132 130 126 126 118 110 97 73 77 88 79 68 69 59 47 42 35 39 40 33 38 40 38
101 101 66 72 76 77 76 85 118 253 267 325 123 138 151 163 173 188 192 172 153 157 165 166 154 153 145 134 143 139 145 146 139 110 91 103 110 102 89 73 64 54 47 46 44 37 37 36 29
119 102 70 35 58 69 95 12 30 259 236 142 131 144 162 172 181 168 166 164 166 172 175 171 166 165 149 144 152 160 165 159 144 131 129 123 125 122 117 101 82 66 57 49 57 49 47 37 32
108 81 36 352 166 166 97 317 242 242 171 167 171 169 174 186 178 181 189 181 181 177 172 167 172 161 160 167 172 164 162 153 151 156 147 143 134 134 133 122 105 81 76 61 56 51 51 42 30
71 60 16 319 106 138 123 263 264 239 169 193 206 197 192 200 201 203 189 179 174 165 167 175 163 158 173 180 173 159 155 150 156 158 155 161 150 143 137 133 135 119 93 81 70 57 51 33 22
42 88 225 301 355 95 141 251 282 346 167 213 220 210 215 229 237 227 204 184 173 173 167 174 167 169 180 176 168 159 151 154 161 157 169 184 162 153 148 153 153 139 119 103 84 59 75 45 8
191 187 199 246 286 106 168 262 287 285 213 234 238 227 224 232 238 225 204 185 169 165 160 165 165 175 169 156 139 145 146 164 163 172 185 184 174 153 160 166 158 145 136 115 104 104 65 80 7
145 150 174 245 236 103 234 274 284 282 251 254 250 238 234 237 237 216 191 173 152 146 151 166 167 179 151 153 167 182 206 198 191 194 186 182 174 162 162 182 168 155 161 175 151 125 93 59 38
109 113 155 324 12 274 316 291 281 261 229 229 230 232 233 242 257 227 186 165 168 171 175 183 186 180 175 177 179 181 180 198 193 191 175 185 184 179 180 182 184 175 164 166 163 136 115 267 31
105 187 204 218 336 343 332 316 305 284 251 250 229 224 227 223 226 219 197 189 181 186 189 197 198 186 185 169 139 112 101 74 164 220 204 205 193 189 190 199 185 180 171 188 197 174 162 204 271
211 227 174 140 72 303 48 298 294 280 288 269 252 242 238 228 214 206 199 193 199 206 196 196 193 184 179 164 159 160 178 201 216 211 204 206 196 195 204 201 187 178 176 197 211 191 193 181 223
185 172 128 121 126 335 323 210 284 296 274 265 247 237 239 226 206 204 203 201 204 199 190 193 188 184 173 173 180 177 191 211 202 153 191 207 211 215 202 188 186 183 193 205 211 196 197 196 212
138 72 58 50 66 304 227 182 274 246 236 261 252 234 232 223 207 203 200 180 190 181 170 165 175 192 173 169 179 181 187 185 156 165 207 233 233 244 238 208 202 199 202 216 220 204 198 210 223
91 96 41 4 3 257 221 206 250 248 238 239 251 237 229 211 196 194 186 179 186 182 180 177 179 198 191 179 185 196 202 193 194 205 208 224 237 246 248 224 215 215 217 218 211 202 215 214 219
197 155 160 189 227 276 288 237 254 262 259 258 251 221 204 198 193 192 189 185 190 191 189 186 192 208 199 196 201 205 204 205 216 210 206 217 233 241 231 209 213 221 220 222 212 216 230 228 229
154 184 165 126 78 301 270 277 295 266 269 269 256 197 201 202 199 197 195 190 189 190 195 196 197 204 208 210 201 201 206 209 220 216 211 225 241 251 237 216 213 217 219 219 206 221 233 230 233
146 147 111 128 155 253 283 264 249 243 240 244 242 239 231 215 207 209 204 197 194 193 193 187 195 207 210 207 206 207 213 218 223 208 225 231 238 240 233 240 234 228 223 218 216 235 241 237 245
148 148 142 139 163 169 252 265 229 213 208 212 227 228 222 214 209 212 214 201 190 177 173 185 198 205 209 204 203 209 216 217 213 218 234 238 241 236 231 232 238 245 242 231 225 234 240 244 256
207 193 164 166 220 202 218 266 272 214 210 203 222 229 222 214 209 205 202 188 184 188 189 197 204 209 216 204 189 202 214 208 218 238 244 237 240 245 239 234 235 255 264 253 239 240 238 241 249